Retour au catalogue

STARLINK-35978

ActifCommunicationsVLEO
NORAD 66601·PAYLOAD·🇺🇸 United States

Lancé Nov 22, 2025 depuis Cape Canaveral Space Force Station

Loading…

Prochains Passages (prochaines 24 heures)

TLE

FraisSource: CelesTrak SupGP

Époque: Sep 14, 2026, 20:50 UTC

1 66601C 25270P   26257.86854167  .00018570  00000+0  67281-3 0  2576
2 66601  43.0003  67.7441 0001418 275.1873 277.8006 15.27559848    12

Suivez STARLINK-35978 en temps réel avec AllMySat

Download on the App Store